Wind_Speed
3 1 1 2 3 4 4 5 5 6 7 8 8 8 7 8 8 6 5 4 3 3 5 7 9 11 12 14 15 15 15 14 14 13 12 10 8 6 4 3 2 3 4 6 8 10 12 13 15
3 1 0 1 3 4 4 4 5 7 8 9 9 9 9 9 8 7 5 3 3 3 4 5 7 9 11 12 14 14 14 14 14 13 12 11 9 7 5 4 3 3 3 5 7 9 11 13 14
3 2 1 1 3 4 4 4 6 7 9 9 10 10 10 10 9 7 5 3 2 3 3 4 6 8 10 11 12 13 14 14 13 13 12 12 10 9 7 5 4 3 3 4 5 7 9 12 14
4 3 2 0 2 2 2 4 6 8 9 10 10 11 11 12 10 8 6 3 2 2 2 3 5 7 8 10 12 12 13 13 13 13 12 12 11 10 8 6 5 4 3 2 2 4 6 10 13
6 4 3 1 1 1 1 3 5 8 10 11 11 12 12 12 11 10 7 5 3 2 2 2 4 6 7 9 10 12 12 13 13 13 12 12 11 11 10 8 6 4 4 3 2 2 3 7 10
7 5 4 1 0 0 1 3 5 8 10 11 11 12 12 12 12 10 9 6 4 2 2 2 3 5 6 8 9 10 11 12 12 12 12 12 11 11 11 9 7 5 3 3 2 1 1 4 7
9 6 5 2 1 0 1 3 5 7 9 10 11 12 12 12 11 11 9 7 5 3 2 2 3 4 6 8 9 9 10 11 11 12 12 11 11 11 11 10 8 6 4 3 2 1 0 3 6
10 7 5 2 1 1 1 2 4 6 7 9 10 11 11 11 11 10 9 8 6 5 4 4 4 5 6 8 9 10 10 10 11 11 11 11 11 10 10 10 8 7 5 3 1 1 2 3 5
11 9 6 4 3 3 2 3 3 4 6 7 9 10 11 11 11 10 9 8 7 6 6 6 6 7 7 9 9 10 10 10 10 10 10 11 10 10 10 10 8 7 5 3 2 2 4 5 6
12 10 9 7 5 5 4 5 5 5 6 7 8 9 11 11 11 11 10 9 9 8 8 8 8 9 10 10 11 11 11 11 10 10 10 10 10 9 9 9 8 7 6 4 2 3 5 6 7
13 13 12 12 10 9 9 8 8 8 8 8 9 10 11 12 12 12 12 12 11 10 10 10 11 11 12 12 12 12 12 12 11 10 10 10 9 9 8 8 8 7 6 4 3 4 5 7 8
15 15 14 14 14 14 13 12 12 12 12 12 12 12 12 13 13 14 14 14 13 13 13 13 13 14 14 13 13 13 12 12 12 11 10 10 9 8 8 7 7 7 6 5 5 5 5 6 8
17 17 17 18 18 18 17 16 16 16 16 16 15 15 15 15 15 15 15 15 15 15 15 15 15 15 15 15 14 14 13 13 13 12 11 10 10 9 8 7 7 7 7 6 6 6 6 7 8
19 19 20 21 22 22 22 21 21 21 21 20 19 19 18 18 17 17 17 17 16 16 16 16 17 17 16 16 16 15 14 14 14 13 12 11 10 10 9 8 7 7 7 7 6 7 7 7 8
21 22 23 24 26 26 26 24 26 26 26 25 24 23 22 21 20 19 19 18 18 18 18 17 17 18 18 17 17 16 16 15 15 14 13 13 12 11 11 10 9 8 8 7 7 7 8 8 9
25 26 27 28 29 30 30 28 29 30 30 29 28 27 26 24 23 21 21 20 20 20 19 18 17 18 19 18 18 18 17 16 16 15 15 14 13 13 12 11 11 11 10 9 9 9 9 10 10
29 30 30 32 34 34 35 33 33 35 35 34 33 32 30 29 26 25 24 22 21 21 20 19 19 19 19 19 19 19 18 17 17 16 16 16 15 14 14 14 14 14 13 12 11 11 11 11 12
32 33 34 35 37 38 38 38 37 39 39 38 38 37 35 33 30 29 27 25 24 22 21 21 21 20 20 21 21 20 20 19 18 18 18 17 17 17 17 17 16 16 16 15 14 13 12 13 13
35 36 37 38 40 41 41 40 40 42 42 41 41 40 39 37 35 33 31 28 27 25 23 23 23 23 23 23 23 22 22 21 20 19 19 20 20 20 20 20 19 18 18 17 16 16 15 14 15
36 38 39 40 41 42 42 41 42 43 43 43 42 41 40 39 37 36 34 32 31 29 26 25 25 25 25 26 26 25 24 24 23 22 22 21 21 21 21 21 20 20 20 19 19 19 18 18 18
37 39 40 42 43 44 44 43 42 43 43 43 42 41 39 39 38 37 36 35 33 31 29 28 28 28 28 29 30 27 26 26 25 24 23 22 22 22 22 22 21 21 22 22 22 21 22 22 21
37 38 40 41 42 42 41 42 39 39 38 39 39 39 38 37 37 36 36 36 35 34 32 32 31 31 32 32 33 31 29 28 26 25 24 23 23 23 22 23 23 23 23 23 24 24 24 23 23
40 40 41 41 41 41 39 40 37 34 32 33 33 33 34 34 35 35 34 35 35 35 35 34 35 35 35 35 34 32 31 28 25 24 24 24 23 23 22 23 24 24 24 24 24 25 26 26 26
43 43 43 42 40 40 36 35 35 32 30 29 29 30 30 30 31 31 32 33 34 35 36 36 37 37 36 37 36 32 30 27 24 23 23 23 23 23 23 23 24 24 24 25 25 26 27 27 27
43 43 43 41 38 36 32 31 31 29 27 26 26 26 27 28 28 29 30 31 32 33 35 36 38 38 37 36 33 31 29 27 24 24 24 24 24 24 23 23 24 24 24 25 25 26 26 27 28
38 38 36 35 32 29 26 25 24 24 23 23 24 24 25 26 26 28 29 30 31 32 33 34 35 35 34 33 31 29 27 25 23 23 23 23 24 23 23 23 23 24 24 25 26 27 27 28 29
31 28 29 29 27 25 24 23 20 20 21 21 22 22 23 24 24 26 27 29 30 30 31 32 32 30 30 28 27 24 23 21 20 21 22 22 22 22 22 23 23 24 24 24 25 26 27 27 28
23 20 18 18 20 19 19 18 17 17 17 17 18 19 19 22 22 23 24 26 27 28 28 26 26 24 23 21 20 19 18 18 19 19 21 21 22 23 23 24 24 24 24 24 25 25 26 26 27
19 15 12 11 12 13 14 13 13 14 14 13 13 14 15 17 19 20 21 23 24 24 23 22 21 19 17 16 15 15 15 16 18 20 21 22 23 24 24 23 24 24 24 24 24 24 24 25 25
18 13 8 5 5 8 9 8 8 8 8 9 9 10 11 12 14 14 15 16 17 18 16 15 15 14 12 12 12 13 15 17 19 21 22 23 23 24 24 24 23 23 24 24 23 23 23 23 23
Wind_Direction
166 153 72 51 41 38 19 9 11 13 12 10 7 8 3 355 357 359 360 14 34 58 56 47 41 38 38 38 39 42 44 44 44 42 39 34 28 21 8 351 323 283 261 249 243 241 237 233 228
187 197 235 36 34 28 30 29 31 33 30 22 17 16 14 11 11 11 10 19 45 73 65 52 42 38 37 36 37 39 41 42 43 41 38 35 30 25 14 360 345 319 289 267 256 248 240 235 229
208 221 233 41 36 34 42 47 47 47 42 33 25 21 21 21 19 15 16 26 55 82 75 57 44 39 36 33 33 35 37 38 39 39 37 34 31 27 21 11 359 341 317 287 261 251 239 231 227
220 232 222 140 54 56 57 53 53 50 43 36 30 27 26 25 23 19 19 29 59 81 80 63 48 38 34 30 29 30 32 33 34 35 34 33 30 27 23 18 12 359 344 317 286 266 236 224 223
230 232 221 166 70 85 56 54 51 47 41 34 29 29 27 27 25 21 19 29 51 72 76 58 41 31 29 26 25 25 27 27 28 30 31 31 31 29 25 23 19 10 358 349 323 289 234 219 220
237 243 236 229 179 104 32 50 42 40 37 30 25 25 25 25 24 21 19 24 35 52 58 30 20 20 19 18 17 17 20 20 21 23 25 26 29 28 28 28 25 18 8 3 360 0 226 212 217
240 249 251 257 236 85 48 49 41 36 30 25 22 17 20 22 23 20 18 20 23 20 12 354 352 357 359 0 3 5 8 10 13 15 17 20 23 24 26 28 28 25 16 4 2 10 197 211 216
247 256 252 249 227 321 355 15 24 29 20 16 15 12 12 15 18 17 14 12 9 3 345 329 324 328 336 341 346 350 353 357 2 5 8 12 16 19 21 23 25 27 24 9 338 291 239 219 218
251 257 259 267 276 287 298 329 348 6 5 5 3 1 1 4 6 4 2 358 353 346 337 324 314 311 315 322 327 332 336 340 346 352 357 3 9 14 17 18 20 23 23 11 325 270 247 233 223
250 256 264 267 286 283 278 298 304 314 328 339 342 344 345 348 349 347 344 340 337 332 326 320 312 307 306 308 312 315 320 324 329 336 345 353 359 4 10 13 15 17 18 8 321 269 254 243 232
248 253 260 269 275 277 276 285 292 296 302 308 316 323 328 329 330 331 331 330 328 323 318 315 312 307 304 303 305 306 309 312 314 320 329 337 346 353 1 5 10 10 6 357 325 280 265 256 245
248 252 259 266 271 276 277 283 288 290 291 294 299 304 310 315 317 319 320 321 322 320 316 312 308 306 303 300 300 300 300 302 305 307 313 319 326 335 345 353 1 3 357 346 333 306 284 271 258
247 252 257 263 269 274 276 279 281 284 286 288 290 293 297 301 304 307 310 311 313 313 311 307 303 300 298 297 295 294 294 295 296 298 299 303 308 314 321 330 344 350 346 340 330 315 296 283 273
251 255 258 262 265 268 273 276 278 278 280 283 285 288 291 293 295 296 299 301 305 306 305 303 300 296 293 290 289 289 288 288 290 292 291 291 293 296 300 305 317 328 330 327 320 310 296 284 277
255 257 261 263 266 268 270 273 275 276 279 280 281 283 285 286 287 287 290 293 294 297 299 300 298 295 291 288 284 283 283 283 285 286 285 284 283 284 288 292 299 306 312 313 309 301 290 280 274
258 260 261 264 267 268 269 270 272 275 276 276 276 277 278 279 280 281 283 286 289 290 291 293 294 293 291 287 283 280 279 279 279 280 281 280 279 279 281 285 290 294 298 301 300 297 290 280 274
259 260 261 264 266 268 269 269 270 272 272 273 274 274 274 274 275 275 276 278 283 286 285 285 288 288 287 285 283 280 276 274 274 274 275 276 275 275 277 279 281 284 287 288 289 290 290 284 280
262 263 264 266 267 268 270 271 270 270 271 271 272 272 272 273 273 271 273 274 277 280 281 282 283 283 282 282 281 278 275 273 271 270 271 271 270 272 273 274 274 276 280 281 282 284 284 283 281
265 266 266 267 268 269 270 271 271 271 271 271 271 271 272 272 270 269 270 270 272 277 278 279 278 278 275 276 276 275 273 273 272 269 267 267 268 268 269 269 270 272 274 279 280 281 280 278 276
268 269 269 268 269 269 270 271 271 271 271 271 271 270 270 270 269 268 267 268 270 272 273 271 273 273 272 272 271 269 270 270 271 269 267 266 266 266 266 268 268 270 272 274 275 277 275 276 274
272 273 272 272 271 271 271 271 271 272 272 272 271 270 269 268 268 265 265 265 265 266 266 265 266 268 266 265 266 265 266 268 269 269 266 264 265 264 264 265 265 267 270 271 272 275 275 275 273
276 276 275 274 274 274 274 273 271 272 272 272 271 270 269 268 267 264 262 260 260 260 259 259 260 261 261 262 262 261 263 263 265 266 265 263 263 264 264 264 264 265 267 269 271 274 274 273 272
280 278 276 275 275 275 275 274 273 272 272 272 272 271 270 268 266 262 258 257 255 254 254 254 254 254 256 255 256 256 260 261 261 262 263 263 262 263 263 264 265 266 267 269 271 273 272 271 272
284 281 279 277 276 275 276 275 275 274 274 273 272 270 268 266 262 258 255 253 252 251 251 250 251 250 251 252 254 256 259 257 259 263 263 263 264 265 265 265 265 266 268 270 272 273 273 271 271
287 284 283 281 278 277 275 274 276 276 275 273 269 266 264 261 257 254 251 249 250 250 249 248 250 249 249 250 252 255 258 258 261 264 264 264 265 265 266 267 269 271 272 274 274 272 272 272 271
290 284 281 280 278 277 273 272 275 275 275 272 268 264 260 257 253 250 249 247 246 247 247 249 251 249 251 252 252 253 254 258 262 262 262 263 264 265 268 270 272 274 276 276 276 275 273 273 272
299 289 280 274 272 272 271 270 269 272 274 273 268 265 260 256 253 249 248 247 246 247 248 249 252 252 254 254 253 256 257 260 264 266 265 265 266 268 271 273 275 276 277 277 277 277 275 274 272
315 303 287 275 267 264 266 268 270 271 276 278 273 267 261 256 255 251 249 248 247 248 247 251 250 256 254 252 252 255 259 263 265 266 268 269 271 274 276 277 278 278 278 278 278 278 276 274 273
336 324 304 278 265 263 265 266 273 283 281 285 281 268 261 259 256 256 256 253 251 250 249 253 248 248 248 247 254 263 265 269 272 274 276 276 277 278 277 277 279 280 279 279 278 278 277 275 273
360 359 343 297 260 256 264 271 272 290 299 290 285 274 265 263 260 261 259 256 249 248 248 246 243 243 244 252 262 269 272 274 277 279 280 281 281 279 278 277 279 280 279 278 277 277 276 275 273
Height
5891 5892 5893 5895 5896 5895 5894 5893 5893 5892 5892 5891 5890 5890 5890 5890 5891 5893 5891 5889 5889 5889 5889 5889 5889 5889 5888 5887 5886 5885 5884 5883 5882 5882 5881 5881 5881 5880 5880 5880 5880 5881 5881 5882 5883 5884 5886 5887 5889
5892 5893 5895 5896 5896 5895 5895 5894 5893 5893 5893 5892 5891 5890 5890 5890 5890 5890 5889 5889 5889 5890 5890 5890 5890 5889 5889 5888 5887 5886 5885 5884 5883 5882 5882 5881 5881 5880 5880 5880 5880 5880 5880 5881 5882 5882 5884 5885 5887
5892 5894 5896 5896 5896 5896 5896 5895 5894 5894 5894 5893 5892 5891 5891 5890 5890 5890 5889 5889 5890 5890 5890 5890 5890 5890 5890 5889 5888 5887 5886 5885 5884 5883 5882 5881 5881 5880 5880 5879 5880 5879 5879 5880 5880 5881 5882 5883 5885
5893 5895 5896 5897 5897 5897 5897 5896 5895 5895 5894 5894 5893 5892 5891 5891 5890 5890 5889 5890 5890 5890 5891 5891 5891 5891 5890 5890 5889 5888 5887 5886 5885 5884 5883 5882 5881 5880 5879 5879 5879 5879 5879 5879 5879 5879 5880 5881 5883
5893 5895 5896 5897 5897 5898 5897 5897 5896 5895 5895 5894 5894 5893 5892 5891 5890 5890 5890 5890 5890 5891 5891 5891 5891 5891 5891 5890 5890 5889 5888 5887 5886 5885 5884 5883 5882 5881 5880 5879 5879 5879 5878 5878 5878 5879 5879 5880 5882
5893 5895 5896 5897 5898 5899 5898 5897 5896 5896 5895 5895 5894 5894 5893 5892 5891 5891 5891 5891 5891 5891 5891 5892 5892 5892 5891 5891 5890 5889 5888 5888 5887 5885 5884 5883 5882 5881 5880 5879 5879 5878 5878 5878 5878 5878 5879 5879 5881
5893 5895 5895 5897 5898 5899 5899 5898 5897 5896 5896 5896 5895 5895 5894 5893 5893 5892 5892 5892 5891 5892 5892 5892 5892 5892 5891 5891 5890 5889 5889 5888 5887 5886 5885 5884 5883 5882 5880 5879 5879 5878 5878 5878 5878 5878 5879 5879 5880
5892 5895 5895 5897 5898 5900 5900 5899 5898 5898 5897 5897 5896 5896 5895 5895 5894 5893 5893 5892 5892 5892 5892 5892 5892 5892 5891 5891 5890 5889 5889 5888 5887 5886 5885 5884 5883 5882 5881 5880 5879 5878 5878 5878 5878 5878 5879 5879 5880
5892 5895 5895 5896 5897 5898 5899 5899 5899 5898 5898 5897 5897 5896 5895 5894 5894 5894 5893 5893 5892 5892 5892 5891 5891 5891 5891 5890 5889 5889 5888 5888 5887 5886 5885 5884 5883 5882 5881 5880 5879 5878 5878 5878 5878 5878 5878 5878 5879
5891 5893 5894 5895 5896 5897 5897 5898 5899 5899 5898 5897 5897 5896 5895 5894 5894 5893 5893 5892 5892 5891 5890 5890 5890 5890 5889 5889 5888 5888 5887 5887 5886 5886 5885 5884 5883 5882 5881 5880 5879 5878 5877 5877 5877 5877 5877 5877 5878
5890 5891 5892 5893 5894 5895 5896 5896 5897 5897 5897 5897 5896 5895 5894 5893 5893 5892 5892 5891 5890 5890 5889 5889 5888 5888 5888 5888 5887 5886 5886 5885 5885 5884 5884 5883 5882 5881 5880 5879 5878 5878 5877 5876 5876 5876 5876 5876 5877
5888 5889 5890 5891 5891 5892 5893 5894 5894 5895 5895 5895 5894 5894 5893 5892 5892 5891 5890 5889 5889 5888 5887 5886 5886 5886 5886 5885 5885 5884 5884 5884 5883 5883 5882 5882 5881 5880 5880 5879 5878 5877 5876 5875 5875 5875 5875 5875 5875
5885 5886 5887 5888 5888 5889 5890 5890 5891 5891 5891 5891 5891 5891 5891 5891 5890 5889 5888 5887 5886 5885 5885 5884 5884 5883 5883 5883 5882 5882 5881 5881 5881 5881 5880 5880 5879 5879 5878 5878 5877 5876 5875 5874 5874 5873 5873 5873 5874
5883 5883 5884 5884 5885 5885 5886 5887 5887 5886 5887 5887 5888 5888 5888 5888 5887 5886 5886 5885 5884 5883 5882 5881 5881 5880 5880 5880 5879 5879 5879 5878 5878 5878 5878 5878 5877 5877 5876 5876 5875 5874 5874 5873 5872 5871 5871 5871 5871
5879 5880 5880 5880 5880 5881 5882 5883 5881 5881 5882 5882 5883 5883 5884 5884 5883 5883 5882 5881 5881 5880 5879 5878 5877 5877 5876 5876 5876 5876 5875 5875 5875 5875 5875 5875 5874 5874 5873 5873 5872 5872 5871 5871 5870 5870 5869 5869 5869
5875 5876 5876 5875 5875 5875 5877 5878 5876 5875 5875 5876 5876 5877 5878 5878 5879 5879 5878 5877 5876 5876 5875 5874 5873 5873 5872 5872 5872 5872 5871 5871 5871 5871 5871 5871 5871 5870 5870 5870 5870 5869 5869 5869 5868 5868 5867 5867 5867
5870 5870 5870 5870 5868 5868 5869 5871 5870 5868 5868 5868 5869 5869 5871 5872 5873 5873 5873 5872 5871 5871 5870 5870 5869 5868 5868 5867 5867 5867 5867 5867 5867 5867 5867 5867 5867 5866 5866 5866 5866 5866 5866 5866 5866 5865 5865 5864 5864
5864 5863 5863 5863 5861 5861 5861 5862 5862 5859 5859 5860 5861 5862 5863 5865 5866 5866 5866 5866 5866 5866 5865 5865 5864 5864 5863 5863 5862 5862 5862 5862 5862 5862 5862 5862 5862 5862 5862 5862 5862 5862 5862 5863 5863 5863 5862 5862 5861
5856 5855 5855 5855 5853 5853 5852 5853 5852 5850 5850 5851 5852 5853 5854 5857 5858 5859 5860 5860 5860 5860 5860 5859 5859 5859 5858 5858 5857 5856 5856 5856 5856 5857 5857 5857 5857 5857 5858 5858 5858 5858 5858 5858 5858 5859 5859 5859 5858
5848 5847 5846 5846 5844 5843 5843 5843 5842 5841 5841 5841 5842 5843 5845 5847 5849 5850 5851 5852 5853 5853 5853 5853 5853 5853 5852 5852 5851 5850 5850 5850 5850 5851 5851 5852 5852 5852 5853 5853 5853 5853 5854 5854 5854 5854 5855 5855 5854
5840 5838 5837 5835 5834 5832 5833 5834 5832 5831 5830 5831 5832 5833 5835 5837 5839 5841 5842 5844 5845 5846 5846 5847 5847 5847 5846 5845 5844 5843 5843 5844 5844 5844 5845 5846 5846 5847 5848 5848 5849 5849 5849 5849 5849 5849 5849 5849 5849
5832 5829 5826 5824 5823 5822 5822 5821 5823 5822 5821 5821 5822 5823 5825 5827 5829 5830 5832 5834 5836 5837 5838 5839 5839 5839 5838 5838 5836 5836 5836 5837 5837 5838 5839 5840 5841 5842 5843 5843 5843 5844 5844 5844 5844 5844 5844 5843 5843
5821 5819 5816 5814 5812 5811 5811 5810 5813 5813 5813 5812 5813 5813 5815 5817 5818 5820 5822 5824 5826 5827 5829 5830 5830 5831 5830 5829 5828 5827 5829 5830 5830 5832 5833 5834 5834 5835 5836 5837 5838 5838 5838 5838 5838 5838 5838 5838 5837
5810 5807 5804 5803 5801 5801 5802 5801 5802 5803 5804 5804 5804 5805 5806 5807 5809 5810 5812 5814 5816 5818 5819 5820 5821 5821 5822 5821 5821 5821 5821 5822 5823 5825 5827 5828 5828 5829 5830 5831 5831 5832 5832 5833 5832 5832 5832 5832 5831
5797 5794 5791 5790 5789 5790 5791 5791 5793 5794 5795 5796 5796 5797 5798 5799 5800 5802 5803 5805 5807 5809 5809 5811 5812 5812 5813 5813 5813 5814 5815 5816 5817 5818 5821 5822 5822 5823 5824 5824 5825 5825 5826 5826 5826 5826 5826 5826 5825
5785 5782 5781 5779 5779 5780 5782 5783 5786 5786 5787 5788 5788 5789 5790 5792 5793 5794 5795 5797 5799 5800 5801 5803 5803 5803 5804 5805 5807 5808 5809 5809 5811 5813 5814 5815 5816 5817 5818 5818 5819 5819 5819 5820 5820 5820 5820 5820 5819
5773 5770 5769 5769 5770 5772 5774 5777 5779 5780 5780 5781 5782 5783 5784 5785 5786 5787 5788 5789 5791 5792 5794 5795 5795 5796 5797 5799 5801 5801 5803 5804 5806 5808 5809 5810 5811 5811 5812 5812 5812 5813 5813 5813 5813 5813 5813 5813 5813
5765 5762 5761 5762 5763 5766 5769 5771 5773 5774 5775 5775 5776 5777 5778 5779 5780 5781 5782 5783 5785 5786 5787 5788 5789 5790 5792 5793 5795 5797 5798 5799 5801 5802 5803 5804 5805 5805 5806 5806 5806 5806 5806 5806 5806 5806 5806 5806 5806
5763 5759 5757 5758 5760 5762 5765 5770 5769 5770 5771 5771 5771 5772 5773 5774 5775 5777 5777 5779 5780 5780 5781 5783 5784 5786 5788 5789 5791 5793 5794 5795 5796 5797 5798 5798 5798 5799 5799 5799 5800 5800 5800 5800 5799 5799 5799 5799 5799
5762 5758 5756 5757 5759 5761 5763 5769 5767 5768 5768 5769 5769 5769 5770 5771 5772 5773 5774 5774 5775 5776 5777 5779 5780 5782 5784 5786 5788 5790 5791 5792 5793 5793 5793 5793 5792 5792 5792 5793 5793 5793 5793 5793 5793 5793 5793 5793 5792